Mercoledi 18 Maggio 2022

 
Calliano - Provincia di Trento

189 mslm

45° 55' 59'' N 11° 05' 53'' E

Pagine realizzate e gestite da Andrea Pernecher

 

Tutti gli orari sono riferiti all'ora solare (GMT+1h)

>stazione meteo :: i dati del giorno  

 Dati relativi a MERCOLEDI 18 MAGGIO 2022 ORE 16.49
 

 TEMPERATURA

28,7 °C

 

 ESCURS. TERMICA 15,0 °C

 

 

 TEMPERATURA MIN

15,3 °C

alle 05:29

 

 TEMPERATURA MAX 30,3 °C

alle 15:14

 

 TEMP.MEDIA INTEG.

22.4 °C

       
 

 PRESSIONE

983 mbar

 

 UMIDITA' 27 %

 

 PIOGGIA

0,0 mm

 

 INTENS. PIOGGIA 0,0 mm/h

 

 VENTO MAX

6,9 m/s

N

 

 INDICE DI CALORE

27,5 °C

 
Immagini WebCam
ORE 8.00 ORE 12.00 ORE 16.00

> visualizza webcam 24 ore

 

 Dettaglio rilevazioni di Mercoledi 18 Maggio 2022 (ogni 15 minuti)
Ora Temperatura °C Umidità R. % Pressione mbar Vento m/s Indice di calore °C Pioggia totale caduta mm Intensità della pioggia mm/h
  TEMPERATURA UMIDITA' PRESSIONE VENTO IND. CALORE PIOGGIA INTENS. PIOGGIA
16:30 28,9 26 983 3,9 W 27,6 0,0 0,0
16:15 29,5 25 983 2,8 WSW 28,0 0,0 0,0
16:00 29,8 25 983 4,3 SW 28,3 0,0 0,0
15:45 29,9 25 983 3,6 SW 28,4 0,0 0,0
15:30 30,1 24 983 2,8 SW 28,5 0,0 0,0
15:15 30,3 25 984 2,4 W 28,7 0,0 0,0
15:00 30,0 25 984 3,7 W 28,4 0,0 0,0
14:45 29,9 26 983 2,6 SW 28,4 0,0 0,0
14:30 29,7 25 983 2,8 SW 28,2 0,0 0,0
14:15 29,9 26 984 2,6 WSW 28,4 0,0 0,0
14:00 29,6 26 984 2,8 WSW 28,2 0,0 0,0
13:45 29,4 27 984 3,6 SSW 28,0 0,0 0,0
13:30 29,2 26 984 2,6 W 27,8 0,0 0,0
13:15 29,7 27 984 2,4 S 28,3 0,0 0,0
13:00 29,0 28 984 2,8 WSW 27,8 0,0 0,0
12:45 29,0 27 984 3,4 WNW 27,7 0,0 0,0
12:30 28,5 29 984 2,4 SW 27,4 0,0 0,0
12:15 27,9 29 984 2,8 W 27,0 0,0 0,0
12:00 27,8 28 984 4,5 WSW 26,9 0,0 0,0
11:45 29,0 27 985 3,7 WNW 27,7 0,0 0,0
11:30 29,4 29 984 2,6 W 28,2 0,0 0,0
11:15 29,0 29 984 4,7 SW 27,8 0,0 0,0
11:00 28,5 31 984 1,2 SW 27,5 0,0 0,0
10:45 26,9 33 984 1,4 SW 26,5 0,0 0,0
10:30 25,6 33 984 1,0 N 25,3 0,0 0,0
10:15 24,8 33 985 1,4 ENE 24,5 0,0 0,0
10:00 24,3 33 985 1,4 E 24,0 0,0 0,0
09:45 23,9 34 985 1,2 E 23,6 0,0 0,0
09:30 23,3 34 985 1,6 ESE 23,0 0,0 0,0
09:15 22,7 36 985 1,4 SE 22,5 0,0 0,0
09:00 21,9 40 985 2,4 SE 21,9 0,0 0,0
08:45 21,4 43 985 3,6 SE 21,5 0,0 0,0
08:30 20,9 44 985 2,4 E 21,0 0,0 0,0
08:15 20,4 44 985 3,4 ESE 20,5 0,0 0,0
08:00 20,0 46 985 1,4 E 20,2 0,0 0,0
07:45 19,7 51 985 1,2 E 20,2 0,0 0,0
07:30 18,9 60 985 1,6 SE 19,9 0,0 0,0
07:15 17,9 64 985 0,0 E 19,2 0,0 0,0
07:00 16,7 64 985 1,6 E 18,0 0,0 0,0
06:45 16,3 64 985 0,0 E 17,6 0,0 0,0
06:30 16,1 64 985 1,2 ENE 17,4 0,0 0,0
06:15 15,8 64 984 0,0 ENE 17,1 0,0 0,0
06:00 15,4 62 984 0,0 ENE 16,5 0,0 0,0
05:45 15,3 60 984 0,0 ENE 16,3 0,0 0,0
05:30 15,3 59 984 0,0 ENE 16,2 0,0 0,0
05:15 15,5 58 984 0,0 ENE 16,4 0,0 0,0
05:00 15,7 57 984 0,0 ENE 16,5 0,0 0,0
04:45 15,9 56 984 0,0 ENE 16,7 0,0 0,0
04:30 16,2 55 983 0,0 ENE 16,9 0,0 0,0
04:15 16,6 54 983 0,0 ENE 17,3 0,0 0,0
04:00 16,9 54 983 0,0 ENE 17,6 0,0 0,0
03:45 16,9 53 983 0,0 ENE 17,5 0,0 0,0
03:30 17,0 52 983 0,0 ENE 17,6 0,0 0,0
03:15 17,3 51 983 0,0 ENE 17,8 0,0 0,0
03:00 17,7 50 983 1,0 ENE 18,1 0,0 0,0
02:45 17,9 50 983 0,0 ENE 18,3 0,0 0,0
02:30 18,0 49 983 0,0 ENE 18,4 0,0 0,0
02:15 18,0 50 983 0,0 ENE 18,4 0,0 0,0
02:00 17,9 50 983 0,0 ENE 18,3 0,0 0,0
01:45 17,5 50 983 1,4 S 17,9 0,0 0,0
01:30 17,5 49 983 0,0 SW 17,9 0,0 0,0
01:15 17,5 48 983 0,0 SW 17,8 0,0 0,0
01:00 17,7 48 983 1,2 SW 18,0 0,0 0,0
00:45 17,9 47 983 0,0 WSW 18,2 0,0 0,0
00:30 17,9 46 983 0,0 WSW 18,1 0,0 0,0
00:15 18,2 45 983 0,0 WSW 18,4 0,0 0,0
00:00 18,5 44 982 0,0 WSW 18,6 0,0 0,0

 

 

Stampa paginastampa    torna in cima

 2002-2022 osservatoriocalliano.it